[[{"header":{"parameterUnit":"m.s-1","parameterCategory":1,"la1":30.2991,"la2":30.254,"lo1":-89.0895,"lo2":-89.0444,"dy":0.0017,"dx":0.0017,"nx":28,"ny":28,"refTime":"2023-07-19T21:00:00:Z","depth":0,"parameterNumber":2,"parameterNumberName":"U-component_of_WINDS"},"data":[0,0,0,0,0,0,0,0,0,0,0,0,0,0,0,0,0,0,0,0,0,0,0,0,0,0,0,0,0,0,0,0,0,0,0,0,0,0,0,0,0,0,0,0,0,0,0,0,0,0,0,0,0,0,0,0,0,0,0.1082,0.1083,0,0.1169,0.117,0.1171,0.1216,0.1216,0.1216,0.1216,0.131,0.1312,0.1315,0,0,0,0,0,0,0,0,0,0,0,0,0,0.0959,0.0961,0.1082,0.1083,0.1084,0.1169,0.117,0.1172,0.1216,0.1216,0.1216,0.1216,0.1309,0.1312,0.1315,0,0,0,0,0,0,0,0,0,0,0,0,0,0.1026,0.0961,0.1082,0.1117,0.1121,0.1169,0.117,0.1172,0.1216,0.1216,0.1216,0.1216,0.1308,0.1312,0.1316,0.1338,0,0,0.1327,0.1328,0,0,0,0,0,0,0,0,0.1022,0.103,0.111,0.1114,0.1119,0.1182,0.1161,0.1228,0.1216,0.118,0.1216,0.1216,0.1268,0.1275,0.1291,0.1342,0.1346,0.1327,0.1329,0.1331,0.1332,0,0,0,0,0,0,0,0.1017,0.1027,0.1117,0.1112,0.1117,0.1129,0.1139,0.1174,0.1223,0.1183,0.1186,0.1196,0.127,0.1287,0.1294,0.1347,0.1327,0.133,0.1333,0.1334,0.142,0.142,0,0,0,0,0,0,0.1006,0.1022,0.1114,0.1119,0.1069,0.1131,0.1142,0.1162,0.1222,0.1231,0.1196,0.1198,0.1281,0.1289,0.1297,0.1326,0.1331,0.1335,0.1337,0.142,0.142,0.142,0,0,0,0,0,0,0.1003,0.1014,0.1111,0.1072,0.1085,0.1133,0.1155,0.1163,0.1181,0.1232,0.1241,0.1204,0.1281,0.1292,0.1327,0.133,0.1336,0.134,0.142,0.142,0.142,0.1385,0,0,0,0,0,0,0.1,0.1013,0.1021,0.1072,0.1087,0.1137,0.1155,0.1165,0.1186,0.119,0.1242,0.1251,0.1282,0.1321,0.133,0.1335,0.1342,0.142,0.142,0.142,0.1386,0.1383,0.1382,0,0,0,0,0,0.0995,0.1009,0.1021,0.1032,0.1098,0.1137,0.1146,0.118,0.1186,0.1195,0.1228,0.125,0.1328,0.1324,0.1335,0.1341,0.142,0.142,0.142,0.1387,0.1384,0.1382,0,0,0,0,0,0,0.0959,0.1016,0.103,0.106,0.1093,0.1145,0.1157,0.1177,0.121,0.1212,0.1254,0.1266,0.1296,0.1323,0.1317,0.1365,0.1376,0.1378,0.1347,0.1345,0.1343,0.1336,0.1346,0,0,0,0,0,0.0954,0.098,0.1029,0.1051,0.1067,0.1109,0.1127,0.115,0.1187,0.1202,0.1237,0.1273,0.1306,0.1327,0.136,0.139,0.1402,0.1399,0.1397,0.1395,0.1397,0.1414,0.1413,0.142,0.142,0.142,0,0,0.0945,0.0979,0.0993,0.1044,0.1073,0.11,0.112,0.1149,0.1169,0.1207,0.1241,0.1268,0.1311,0.1343,0.1359,0.1366,0.1397,0.1395,0.1393,0.1396,0.1414,0.1413,0.1412,0.142,0.142,0.142,0,0,0.0942,0.097,0.0991,0.1018,0.106,0.1088,0.1093,0.1141,0.116,0.1195,0.1223,0.1249,0.1305,0.1334,0.1356,0.1363,0.1384,0.1373,0.1362,0.1378,0.1377,0.1377,0.1379,0.1379,0.1374,0.1374,0.1374,0,0.0925,0.0966,0.1,0.1026,0.1047,0.108,0.1102,0.1128,0.1179,0.1194,0.12,0.127,0.1301,0.134,0.1341,0.1358,0.1366,0.1367,0.1374,0.1374,0.1375,0.1377,0.1377,0.1372,0.1372,0.1373,0.1373,0,0.0944,0.0971,0.0983,0.1029,0.1053,0.1076,0.1115,0.1134,0.1155,0.1182,0.1217,0.1256,0.1297,0.1308,0.1329,0.1349,0.1352,0.1366,0.1378,0.1371,0.1374,0.1375,0.137,0.137,0.1371,0.1371,0,0,0.0921,0.0984,0.0988,0.1009,0.1057,0.108,0.1105,0.1143,0.1159,0.1193,0.1216,0.1261,0.1274,0.1299,0.1324,0.1338,0.134,0.135,0.1352,0.1346,0.1363,0.1352,0.1353,0.1353,0.1354,0.1354,0.136,0,0.0924,0.097,0.1,0.1034,0.106,0.1091,0.1113,0.1146,0.1172,0.1199,0.1228,0.1259,0.1274,0.1289,0.1304,0.1336,0.1344,0.1336,0.1376,0.1377,0.1363,0.1354,0.1343,0.1347,0.1361,0.1361,0.1361,0,0.0935,0.0965,0.1001,0.1045,0.1057,0.1076,0.1113,0.1138,0.1176,0.1194,0.122,0.1245,0.1274,0.1283,0.1323,0.1317,0.1336,0.1354,0.1355,0.136,0.1368,0.1359,0.1349,0.1349,0.1364,0.1363,0.1363,0,0.0914,0.0965,0.0992,0.1009,0.1062,0.1074,0.1097,0.1134,0.1155,0.1188,0.1201,0.1238,0.1257,0.1285,0.132,0.1323,0.1356,0.1368,0.1373,0.1372,0.1379,0.1378,0.137,0.139,0.139,0.139,0.139,0,0.0914,0.0935,0.0983,0.1,0.1024,0.1059,0.1082,0.1108,0.1141,0.1164,0.1194,0.1215,0.1259,0.1286,0.1314,0.1342,0.1352,0.1367,0.1374,0.1364,0.1362,0.1377,0.1377,0.139,0.139,0.139,0.139,0,0.0895,0.0928,0.096,0.1007,0.1019,0.1034,0.1074,0.1092,0.1119,0.1148,0.1157,0.12,0.1233,0.1269,0.1316,0.1334,0.1361,0.1371,0.1347,0.1351,0.1353,0.1352,0.1355,0.1357,0.1376,0.1375,0.1375,0,0.0893,0.091,0.0957,0.0973,0.0995,0.1022,0.1042,0.1078,0.1098,0.1141,0.1154,0.1189,0.1218,0.127,0.1306,0.1341,0.1352,0.1351,0.1358,0.1347,0.1351,0.135,0.1351,0.1348,0.1348,0.1348,0.1348,0,0.0886,0.0902,0.0929,0.0962,0.0985,0.1013,0.1043,0.1055,0.1097,0.1118,0.1151,0.1174,0.122,0.1254,0.1293,0.1318,0.134,0.1345,0.1348,0.1338,0.1323,0.133,0.1341,0.1345,0.1345,0.1345,0.1345,0.1345,0.0876,0.0891,0.0926,0.0956,0.0981,0.1008,0.1026,0.1055,0.1082,0.1121,0.1141,0.1173,0.121,0.1264,0.1288,0.1315,0.1322,0.1326,0.1327,0.1327,0.1324,0.1318,0.1322,0.1322,0.1322,0.1323,0.1323,0,0.087,0.0894,0.092,0.0959,0.0983,0.0999,0.1033,0.1051,0.1079,0.111,0.1138,0.1176,0.1208,0.1246,0.1282,0.1296,0.1306,0.1304,0.1303,0.1308,0.1316,0.131,0.1294,0.1294,0.1294,0.1294,0.1294,0.1294,0.087,0.0896,0.0915,0.0954,0.0979,0.1009,0.1027,0.1051,0.1076,0.1116,0.1143,0.1167,0.1201,0.1238,0.1269,0.128,0.1291,0.1285,0.1299,0.1306,0.1308,0.131,0.1304,0.1288,0.1288,0.1288,0.1288,0.1288]},{"header":{"parameterUnit":"m.s-1","parameterCategory":1,"la1":30.2991,"la2":30.254,"lo1":-89.0895,"lo2":-89.0444,"dy":0.0017,"dx":0.0017,"nx":28,"ny":28,"refTime":"2023-07-19T21:00:00:Z","depth":0,"parameterNumber":3,"parameterNumberName":"V-component_of_WINDS"},"data":[0,0,0,0,0,0,0,0,0,0,0,0,0,0,0,0,0,0,0,0,0,0,0,0,0,0,0,0,0,0,0,0,0,0,0,0,0,0,0,0,0,0,0,0,0,0,0,0,0,0,0,0,0,0,0,0,0,0,4.0656,4.0655,0,4.0613,4.0612,4.0612,4.0579,4.0578,4.0578,4.0578,4.0531,4.053,4.053,0,0,0,0,0,0,0,0,0,0,0,0,0,4.0707,4.0706,4.0656,4.0655,4.0655,4.0613,4.0612,4.0612,4.0579,4.0578,4.0578,4.0578,4.0532,4.0531,4.0529,0,0,0,0,0,0,0,0,0,0,0,0,0,4.0677,4.0706,4.0656,4.0634,4.0631,4.0613,4.0612,4.0611,4.0579,4.0578,4.0578,4.0578,4.0532,4.0531,4.0529,4.0529,0,0,4.0525,4.0524,0,0,0,0,0,0,0,0,4.0678,4.0675,4.0637,4.0635,4.0632,4.0601,4.0613,4.0584,4.0579,4.0599,4.0578,4.0577,4.0555,4.0551,4.0544,4.0527,4.0525,4.0525,4.0524,4.0523,4.0523,0,0,0,0,0,0,0,4.068,4.0676,4.0639,4.0637,4.0634,4.0625,4.062,4.0607,4.058,4.0597,4.0594,4.059,4.0553,4.0546,4.0543,4.0525,4.0525,4.0524,4.0523,4.0522,4.0503,4.0503,0,0,0,0,0,0,4.0686,4.0678,4.064,4.0637,4.0655,4.0624,4.0619,4.0611,4.058,4.0575,4.059,4.0588,4.0548,4.0545,4.0541,4.0538,4.0523,4.0522,4.0521,4.0503,4.0503,4.0503,0,0,0,0,0,0,4.0688,4.0683,4.0642,4.0657,4.0651,4.0624,4.0616,4.0611,4.0603,4.0575,4.0569,4.0588,4.0548,4.0543,4.0532,4.0536,4.0521,4.052,4.0502,4.0503,4.0503,4.0532,0,0,0,0,0,0,4.0689,4.0684,4.0685,4.0658,4.0651,4.0635,4.0616,4.061,4.0601,4.0598,4.0571,4.0566,4.0547,4.0534,4.0531,4.0533,4.0519,4.0502,4.0502,4.0503,4.053,4.0533,4.0535,0,0,0,0,0,4.0691,4.0694,4.0685,4.068,4.0651,4.0635,4.0631,4.061,4.0601,4.0601,4.0583,4.0567,4.0536,4.0534,4.0529,4.0531,4.0501,4.0502,4.0503,4.0529,4.0532,4.0535,0,0,0,0,0,0,4.0722,4.069,4.068,4.0674,4.0658,4.063,4.0629,4.0614,4.0599,4.0597,4.0571,4.0565,4.0556,4.0543,4.0541,4.0529,4.0517,4.0516,4.0538,4.0541,4.0543,4.0546,4.0518,0,0,0,0,0,4.0728,4.0719,4.0692,4.0689,4.0682,4.0657,4.0649,4.0634,4.0616,4.0608,4.0589,4.0571,4.0557,4.0548,4.0534,4.0528,4.0521,4.0527,4.053,4.0532,4.0532,4.0526,4.0528,4.0506,4.0506,4.0506,0,0,4.0741,4.0722,4.0718,4.0695,4.068,4.067,4.0651,4.0642,4.0633,4.0607,4.0595,4.058,4.0558,4.0549,4.0544,4.0538,4.0537,4.0533,4.0535,4.0534,4.0527,4.0529,4.0531,4.0507,4.0506,4.0506,0,0,4.0758,4.0744,4.074,4.0726,4.0704,4.0687,4.0686,4.066,4.065,4.0638,4.0617,4.0606,4.0583,4.0568,4.0557,4.0567,4.0551,4.0563,4.0576,4.0571,4.0573,4.0574,4.0576,4.0577,4.0563,4.0563,4.0563,0,4.0776,4.0761,4.0739,4.0731,4.072,4.0696,4.0691,4.0678,4.0653,4.0645,4.0638,4.0608,4.0591,4.0578,4.058,4.0573,4.0569,4.0566,4.0574,4.0575,4.0576,4.0578,4.0579,4.0565,4.0565,4.0565,4.0564,0,4.0784,4.0774,4.0773,4.0749,4.0738,4.0732,4.0707,4.0699,4.0685,4.0669,4.0656,4.0635,4.0615,4.0611,4.0597,4.0595,4.0591,4.058,4.0567,4.058,4.0581,4.0582,4.0567,4.0566,4.0566,4.0566,0,0,4.0819,4.0783,4.0783,4.0772,4.0746,4.0736,4.0728,4.0709,4.0702,4.0685,4.0676,4.0656,4.0645,4.0633,4.0616,4.0612,4.0619,4.06,4.0599,4.0603,4.0613,4.0621,4.0623,4.0609,4.0609,4.0609,4.0615,0,4.0832,4.0816,4.0795,4.0786,4.0775,4.0751,4.0743,4.0726,4.071,4.0698,4.0679,4.0665,4.0653,4.0645,4.0639,4.0619,4.062,4.0619,4.0598,4.0598,4.0604,4.0624,4.0632,4.0639,4.0615,4.0615,4.0615,0,4.0844,4.0828,4.0818,4.0792,4.0786,4.078,4.076,4.0749,4.0728,4.0717,4.0703,4.0685,4.0673,4.0662,4.0644,4.0643,4.0633,4.0622,4.0622,4.0619,4.0607,4.0619,4.0641,4.0642,4.0616,4.0616,4.0616,0,4.0869,4.0846,4.0836,4.0827,4.0797,4.0792,4.0779,4.0758,4.0747,4.073,4.0722,4.0703,4.0693,4.0678,4.0655,4.0649,4.0638,4.0626,4.0627,4.0628,4.0625,4.0626,4.0644,4.0621,4.0621,4.0621,4.0621,0,4.0884,4.0878,4.0847,4.0841,4.0833,4.0809,4.0802,4.0786,4.0767,4.0756,4.0735,4.0725,4.0696,4.0682,4.0664,4.0651,4.0646,4.0635,4.063,4.0637,4.0638,4.063,4.0628,4.0621,4.0621,4.0621,4.0621,0,4.0911,4.089,4.0877,4.085,4.0842,4.0838,4.0813,4.0805,4.0788,4.0775,4.077,4.0743,4.0725,4.0701,4.0676,4.0664,4.0653,4.0645,4.066,4.0657,4.0659,4.0659,4.0672,4.0672,4.065,4.065,4.065,0,4.0922,4.0916,4.0888,4.088,4.0868,4.0855,4.0844,4.082,4.0809,4.0784,4.0779,4.076,4.0744,4.0717,4.0694,4.0674,4.0665,4.0671,4.0662,4.0668,4.0664,4.0664,4.0663,4.0673,4.0674,4.0674,4.0674,0,4.0942,4.0932,4.0918,4.09,4.0888,4.0872,4.0856,4.085,4.0822,4.0811,4.0793,4.078,4.0755,4.0735,4.0712,4.0697,4.068,4.0677,4.0676,4.0683,4.0691,4.0685,4.0665,4.0677,4.0677,4.0677,4.0676,4.0676,4.096,4.0954,4.0933,4.0918,4.0903,4.0887,4.0879,4.086,4.0846,4.0824,4.081,4.0793,4.077,4.0737,4.0723,4.0707,4.0701,4.07,4.0699,4.0699,4.0701,4.0694,4.0703,4.0703,4.0703,4.0703,4.0703,0,4.0978,4.0964,4.095,4.0928,4.0915,4.0902,4.0882,4.0872,4.0858,4.0839,4.0823,4.0802,4.0783,4.0758,4.0737,4.0729,4.0721,4.0724,4.0724,4.0721,4.0709,4.0711,4.0731,4.0731,4.0731,4.0731,4.0731,4.0731,4.0986,4.0975,4.0962,4.0943,4.0928,4.0911,4.0901,4.0886,4.0871,4.0849,4.0833,4.0817,4.0795,4.0772,4.0753,4.0746,4.0739,4.0745,4.0735,4.0724,4.0722,4.0719,4.0721,4.0744,4.0744,4.0748,4.0748,4.0748]}]]